Regional Weather Roundup
Issued by NWS

Home | Current Version | Previous Version | Graphics & Text | Print | Product List | Glossary On
Versions: 1 2 3 4 5 6 7 8 9 10 11 12 13 14 15 16 17 18 19 20 21 22 23 24 25 26 27 28 29 30 31 32 33 34 35 36 37 38 39 40 41 42 43 44 45 46 47 48 49 50
000
ASUS43 KDMX 280207
RWRIA

WEATHER ROUNDUP FOR IOWA
NATIONAL WEATHER SERVICE DES MOINES IA
900 PM CDT FRI MAR 27 2015

NOTE: "FAIR" INDICATES FEW OR NO CLOUDS BELOW 12,000 FEET WITH NO
SIGNIFICANT WEATHER AND/OR OBSTRUCTIONS TO VISIBILITY.

* - THESE STATIONS ARE NOT NWS STATIONS...THUS NOT UNDER NWS
QUALITY CONTROL.  THEY ALSO DO NOT REPORT WEATHER SUCH
AS PRECIPITATION OR FOG.

IAZ001>003-012>014-020>022-031>034-043>046-280300-
   NORTHWEST IOWA

CITY           SKY/WX    TMP DP  RH WIND       PRES   REMARKS
CARROLL *      CLOUDY    36  16  44 SW3       30.12S
CHEROKEE *     CLOUDY    34  18  51 SE5       30.11R WCI  30
DENISON *      MIX PCPN  34  18  51 S5        30.10S WCI  30
LE MARS *      CLOUDY    34  23  64 S6        30.09R WCI  29
ORANGE CITY *  CLOUDY    34  23  64 S5        30.08R WCI  30
SHELDON *      MIX PCPN  32  21  64 SE8       30.08R WCI  25
SIOUX CITY     CLOUDY    34  22  61 SE8       30.09F WCI  27
SPENCER        CLOUDY    33  19  56 W9        30.11R WCI  25
STORM LAKE *   CLOUDY    34  19  55 SW8       30.10F WCI  27
$$

IAZ055>058-069>071-079>083-090>094-280300-
   SOUTHWEST IOWA

CITY           SKY/WX    TMP DP  RH WIND       PRES   REMARKS
ATLANTIC *     CLOUDY    36  19  51 CALM      30.13S
AUDUBON *      FLURRIES  36  16  44 S5        30.13S WCI  32
CLARINDA *     MIX PCPN  36  23  60 SW9       30.17R WCI  29
COUNCIL BLFS * CLOUDY    36  21  55 SE5       30.12S WCI  32
CRESTON *      CLOUDY    36  19  51 CALM      30.14R
HARLAN  *      CLOUDY    36  19  51 S5        30.15S WCI  32
LAMONI         CLOUDY    37  18  46 CALM      30.14S
RED OAK *      CLOUDY    36  21  55 S3        30.14S
SHENANDOAH *   CLOUDY    37  25  60 SE6       30.15S WCI  33
$$

IAZ047>049-059>061-072>074-084-280300-
   CENTRAL IOWA

CITY           SKY/WX    TMP DP  RH WIND       PRES   REMARKS
AMES           MOCLDY    32  14  47 E3        30.15S
ANKENY *       PTCLDY    34  14  44 E5        30.16R WCI  30
CHARITON *     CLOUDY    36  14  41 NE5       30.15S WCI  32
DES MOINES     CLOUDY    38   8  29 SE5       30.16S WCI  34
GRINNELL*      CLEAR     32  12  43 CALM      30.17R
KNOXVILLE *    CLOUDY    34  10  37 CALM      30.15S
MARSHALLTOWN   PTCLDY    30  14  51 CALM      30.16R
PELLA *        MOCLDY    30  14  51 CALM      30.18R
PERRY *        CLOUDY    36  18  48 E3        30.14S
$$

IAZ004>006-015-016-023>025-035-036-280300-
   NORTH CENTRAL IOWA

CITY           SKY/WX    TMP DP  RH WIND       PRES   REMARKS
ALGONA *       CLOUDY    32  19  59 SE6       30.13S WCI  26
CLARION *      MOCLDY    30  23  74 E5        30.14S WCI  25
ESTHERVILLE    CLOUDY    31  19  61 SE5       30.11R WCI  26
FORT DODGE *   CLOUDY    30  16  55 E8        30.14S WCI  23
MASON CITY     CLOUDY    29  19  66 E9        30.16R WCI  20
FOREST CITY *  CLEAR     28  21  74 CALM      30.14R
IOWA FALLS *     N/A     34  14  44 E3        30.16S
$$

IAZ007>011-017>019-026>030-037>042-050>054-066-280300-
   NORTHEAST IOWA

CITY           SKY/WX    TMP DP  RH WIND       PRES   REMARKS
CEDAR RAPIDS   PTCLDY    30  10  43 CALM      30.16S
CHARLES CITY * MOCLDY    25  14  63 E6        30.18R WCI  18
CLINTON *      CLEAR     25  12  58 NE6       30.21S WCI  18
DECORAH *      CLEAR     25  12  58 CALM      30.17R
DUBUQUE        CLEAR     27   8  44 NE3       30.17R
MONTICELLO *   CLEAR     28  14  54 N3        30.18R
OELWEIN *      PTCLDY    25  16  68 NE6       30.18R WCI  18
WATERLOO       CLEAR     24  17  74 NE6       30.18R WCI  17
$$

IAZ064-065-067-068-078-280300-
   EAST CENTRAL IOWA

CITY           SKY/WX    TMP DP  RH WIND       PRES   REMARKS
DAVENPORT      CLEAR     27  10  49 E7        30.18S WCI  19
IOWA CITY      CLEAR     32  11  41 E3        30.19R
MT. PLEASANT * PTCLDY    28  12  50 NE3       30.18S
MUSCATINE *    CLEAR     28  16  59 NW3       30.20R
QUAD CITIES    CLEAR     27  15  61 SE3       30.18R
$$

IAZ062-063-075>077-085>089-095>099-280300-
   SOUTHEAST IOWA

CITY           SKY/WX    TMP DP  RH WIND       PRES   REMARKS
BURLINGTON     CLEAR     31  10  41 CALM      30.18R
FAIRFIELD *    CLEAR     30   9  40 NE3       30.18R
FORT MADISON * CLEAR     32  10  40 CALM      30.19R
KEOKUK *       CLEAR     32  12  43 E3        30.18R
OSKALOOSA *      N/A     32   9  37 CALM      30.18R
CENTERVILLE *  CLEAR     32  14  47 E3        30.17S
OTTUMWA        MOCLDY    30  11  45 CALM      30.17R
WASHINGTON *   CLEAR     30  10  43 NE3       30.18R
$$

ABBREVIATIONS USED IN REMARKS
   TC - TEMPERATURES IN CELSIUS
  WCI - WIND CHILL INDEX
   HX - HEAT INDEX
  VSB - VISIBILITY
$$




USA.gov is the U.S. government's official web portal to all federal, state and local government web resources and services.